This is the latest recevied weather packets stored in our database for station/object KO6HRZ. If no packets are shown the sender has not sent any weather packets the latest 10 day(s).
| Time | Temp. | Humidity | Pressure | Rain* | Wind** | Luminosity | Snow |
|---|---|---|---|---|---|---|---|
| 1788088358 | 15.56° C | 74% | 1010.5 hPa | 0 mm | - | 0 W/m² | - |
| 1788087755 | 15.56° C | 74% | 1010.4 hPa | 0 mm | - | 0 W/m² | - |
| 1788087150 | 15.56° C | 72% | 1010.3 hPa | 0 mm | - | 0 W/m² | - |
| 1788086549 | 16.11° C | 72% | 1010.3 hPa | 0 mm | - | 0 W/m² | - |
| 1788085943 | 16.11° C | 72% | 1010.3 hPa | 0 mm | - | 0 W/m² | - |
| 1788085343 | 16.11° C | 71% | 1010.4 hPa | 0 mm | - | 0 W/m² | - |
| 1788084741 | 16.67° C | 71% | 1010.3 hPa | 0 mm | - | 0 W/m² | - |
| 1788084140 | 16.67° C | 70% | 1010.5 hPa | 0 mm | - | 0 W/m² | - |
| 1788083536 | 16.67° C | 70% | 1010.5 hPa | 0 mm | - | 0 W/m² | - |
| 1788082933 | 16.67° C | 70% | 1010.6 hPa | 0 mm | - | 0 W/m² | - |
| 1788082329 | 16.67° C | 69% | 1010.6 hPa | 0 mm | - | 0 W/m² | - |
| 1788081726 | 17.22° C | 69% | 1010.4 hPa | 0 mm | - | 0 W/m² | - |
| 1788081127 | 17.22° C | 69% | 1010.5 hPa | 0 mm | - | 0 W/m² | - |
| 1788080522 | 16.67° C | 69% | 1010.5 hPa | 0 mm | - | 0 W/m² | - |
| 1788079917 | 16.67° C | 71% | 1010.5 hPa | 0 mm | - | 0 W/m² | - |
| 1788079313 | 17.22° C | 68% | 1010.7 hPa | 0 mm | - | 0 W/m² | - |
| 1788078710 | 17.22° C | 69% | 1010.8 hPa | 0 mm | - | 0 W/m² | - |
| 1788078105 | 17.22° C | 68% | 1010.5 hPa | 0 mm | - | 0 W/m² | - |
| 1788077500 | 17.22° C | 69% | 1010.3 hPa | 0 mm | - | 0 W/m² | - |
| 1788076896 | 17.22° C | 69% | 1010.5 hPa | 0 mm | - | 0 W/m² | - |
| 1788076291 | 17.22° C | 69% | 1010.4 hPa | 0 mm | - | 0 W/m² | - |
| 1788075688 | 17.22° C | 70% | 1010.4 hPa | 0 mm | - | 0 W/m² | - |
| 1788075085 | 17.78° C | 68% | 1010.5 hPa | 0 mm | - | 0 W/m² | - |
| 1788074488 | 17.78° C | 67% | 1010.7 hPa | 0 mm | - | 0 W/m² | - |
| 1788073880 | 17.78° C | 66% | 1010.5 hPa | 0 mm | - | 0 W/m² | - |
* Rain latest hour (hover to see other rain measurements)
** Current wind speed in m/s (hover to see current wind gust speed)